x

9063085 - Toledo, Oh (thro1) Weather Station

2:54am - Mon 29th Dec 2014 All times are CST. -6 hours from GMT.

  • Wind
    5mph
  • Air Temp 26°f
  • Sea Pressure 1024.1mb
  • 9063085 - Toledo, Oh
  • 9063085 - Toledo, Oh

More Historic Weather Station data

Upgrade to MSW Pro to gain access to the past 30 days of data for over 8000 Wavebouys and Weather Stations around the globe.

Join Pro

Comparision Forecast

View Surf forecast
   
Mon 12/29 2:54am 5
mph
1024.1mb 26f
2:48am 5
mph
1024.1mb 26f
2:42am 3 5 mph 1024mb 26f
2:36am 3 5 mph 1024mb 26f
2:30am 3 5 mph 1023.9mb 26f
2:24am 5
mph
1023.9mb 26f
2:18am 3 5 mph 1023.8mb 27f
2:12am 3 6 mph 1023.8mb 27f
2:06am 5 6 mph 1023.8mb 26f
2:00am 5
mph
1023.9mb 26f
1:54am 3 5 mph 1023.9mb 27f
1:48am 3
mph
1023.9mb 27f
1:42am 3 6 mph 1023.8mb 27f
1:36am 3 6 mph 1023.7mb 27f
1:30am 5 7 mph 1023.7mb 27f
1:24am 5 6 mph 1023.6mb 27f
1:18am 5 6 mph 1023.5mb 27f
1:12am 5 7 mph 1023.4mb 27f
1:06am 5 7 mph 1023.4mb 27f
1:00am 6 8 mph 1023.4mb 27f
12:54am 6 8 mph 1023.3mb 27f
12:48am 6 7 mph 1023.4mb 27f
12:42am 6 7 mph 1023.4mb 27f
12:36am 6 7 mph 1023.5mb 28f
12:30am 6 7 mph 1023.4mb 28f
12:24am 6
mph
1023.3mb 28f
12:18am 5 6 mph 1023.3mb 28f
12:12am 5 7 mph 1023.3mb 28f
12:06am 5 6 mph 1023.3mb 28f
12:00am 6 7 mph 1023.2mb 28f
Sun 12/28 11:54pm 6 7 mph 1023.2mb 28f
11:48pm 5 6 mph 1023.2mb 28f
11:42pm 5 7 mph 1023.2mb 28f
11:36pm 6 8 mph 1023.3mb 28f
11:30pm 5 7 mph 1023.2mb 28f
11:24pm 6 8 mph 1023.2mb 28f
11:18pm 6 8 mph 1023.2mb 29f
11:12pm 6 7 mph 1023mb 28f
11:06pm 5 7 mph 1022.9mb 29f
11:00pm 6 8 mph 1022.8mb 29f
10:54pm 6 7 mph 1022.8mb 28f
10:48pm  -  mph - 29f
10:42pm  -  mph - 29f
10:36pm  -  mph - 29f
10:30pm 3 5 mph 1022.4mb 29f
10:24pm 3 6 mph 1022.3mb 29f
10:18pm 3 6 mph 1022.5mb 29f
10:12pm 3 5 mph 1022.6mb 29f
10:06pm 5 7 mph 1022.5mb 29f
10:00pm 6 7 mph 1022.7mb 29f
9:54pm 5 7 mph 1022.7mb 30f
9:48pm 5 7 mph 1022.6mb 30f
9:42pm 5 7 mph 1022.3mb 30f
9:36pm 5 7 mph 1022.1mb 30f
9:30pm 5 6 mph 1022mb 30f
9:24pm 5
mph
1021.9mb 30f
9:18pm 5 6 mph 1021.9mb 30f
9:12pm 5 6 mph 1022mb 30f
9:06pm 5 6 mph 1022mb 31f
9:00pm 6 8 mph 1022mb 31f
8:54pm 6 9 mph 1022mb 31f
8:48pm 6 9 mph 1022mb 31f
8:42pm 7 10 mph 1022mb 31f
8:36pm 7 8 mph 1021.9mb 31f
8:30pm 7 9 mph 1021.9mb 31f
8:24pm 7 10 mph 1021.8mb 31f
8:18pm 8 11 mph 1021.8mb 31f
8:12pm 8 11 mph 1021.8mb 31f
8:06pm 7 9 mph 1021.8mb 31f
8:00pm 7 9 mph 1021.8mb 31f
7:54pm 8 10 mph 1021.8mb 31f
7:48pm 7 10 mph 1021.8mb 31f
7:42pm 8 9 mph 1021.8mb 31f
7:36pm 6 9 mph 1021.7mb 32f
7:30pm 7 8 mph 1021.6mb 32f
7:24pm 7 9 mph 1021.6mb 31f
7:18pm 7 8 mph 1021.5mb 31f
7:12pm 7 8 mph 1021.4mb 32f
7:06pm 6 8 mph 1021.5mb 32f
7:00pm 6 8 mph 1021.4mb 32f
6:54pm 6 8 mph 1021.4mb 32f
6:48pm 6 9 mph 1021.3mb 32f
6:42pm 6 8 mph 1021.2mb 32f
6:36pm 7 9 mph 1021.1mb 32f
6:30pm 7 8 mph 1021.2mb 32f
6:24pm 6 8 mph 1021.1mb 32f
6:18pm 7 9 mph 1021.2mb 33f
6:12pm 5 7 mph 1021mb 33f
6:06pm 6 8 mph 1021.1mb 33f
6:00pm 7 9 mph 1021.2mb 33f
5:54pm 6 8 mph 1021.1mb 33f
5:48pm 7 9 mph 1021.1mb 33f
5:42pm 6 9 mph 1021.1mb 33f
5:36pm 6 11 mph 1021.1mb 33f
5:30pm 7 10 mph 1021.1mb 34f
5:24pm 7 10 mph 1021.1mb 34f
5:18pm 8 10 mph 1021.1mb 34f
5:12pm 9 14 mph 1021.1mb 34f
5:06pm 6 8 mph 1021mb 34f
5:00pm 6 8 mph 1020.9mb 34f
4:54pm 7 8 mph 1020.8mb 34f
4:48pm 6 8 mph 1020.8mb 34f
4:42pm 6 9 mph 1020.7mb 35f
4:36pm 7 10 mph 1020.6mb 35f
4:30pm 7 9 mph 1020.6mb 35f
4:24pm 6 8 mph 1020.6mb 35f
4:18pm 6 9 mph 1020.5mb 35f
4:12pm 8 10 mph 1020.6mb 35f
4:06pm 8 10 mph 1020.3mb 35f
4:00pm 6 11 mph 1020.3mb 35f
3:54pm 9 13 mph 1020.4mb 36f
3:48pm 9 13 mph 1020.3mb 36f
3:42pm 8 11 mph 1020.3mb 36f
3:36pm 8 11 mph 1020.1mb 36f
3:30pm 9 14 mph 1020mb 36f
3:24pm 9 11 mph 1020mb 36f
3:18pm 9 11 mph 1019.8mb 36f
3:12pm 7 11 mph 1019.8mb 36f
3:06pm 8 11 mph 1019.7mb 36f
3:00pm 8 11 mph 1019.5mb 37f
2:54pm 6 9 mph 1019.4mb 36f
2:48pm 7 11 mph 1019.4mb 36f
2:42pm 9 13 mph 1019.4mb 36f
2:36pm 8 13 mph 1019.4mb 37f
2:30pm 10 13 mph 1019.4mb 37f
2:24pm 8 11 mph 1019.2mb 37f
2:18pm 10 14 mph 1019.2mb 37f
2:12pm 9 11 mph 1019.2mb 37f
2:06pm 10 14 mph 1019.2mb 37f
2:00pm 8 10 mph 1019.3mb 37f
1:54pm 9 14 mph 1019mb 37f
1:48pm 10 14 mph 1018.8mb 37f
1:36pm 10 14 mph 1018.8mb 37f
1:30pm 10 14 mph 1018.8mb 37f
1:24pm 13 15 mph 1018.7mb 37f
1:18pm 9 14 mph 1018.6mb 37f
1:12pm 10 13 mph 1018.5mb 37f
1:06pm 8 14 mph 1018.4mb 37f
1:00pm 8 14 mph 1018.5mb 38f
12:54pm 9 15 mph 1018.5mb 37f
12:48pm 10 14 mph 1018.5mb 37f
12:42pm 13 15 mph 1018.5mb 37f
12:36pm 13 15 mph 1018.5mb 37f
12:30pm 9 14 mph 1018.4mb 37f
12:24pm 10 15 mph 1018.4mb 37f
12:18pm 11 14 mph 1018.5mb 37f
12:12pm 10 13 mph 1018.5mb 37f
12:06pm 8 14 mph 1018.5mb 37f
12:00pm 11 14 mph 1018.6mb 37f
11:54am 9 13 mph 1018.8mb 37f
11:48am 7 10 mph 1018.8mb 37f
11:42am 9 13 mph 1018.9mb 37f
11:36am 11 14 mph 1018.8mb 37f
11:30am 9 13 mph 1018.9mb 37f
11:24am 8 11 mph 1018.9mb 37f
11:18am 10 13 mph 1019mb 37f
11:12am 8 10 mph 1018.9mb 37f
11:06am 7 11 mph 1018.9mb 37f
11:00am 7 13 mph 1019mb 37f
10:54am 10 13 mph 1019.2mb 36f
10:48am 9 14 mph 1019.3mb 37f
10:42am 13 16 mph 1019.4mb 36f
10:36am 11 16 mph 1019.5mb 37f
10:30am 13 15 mph 1019.5mb 36f
10:24am 10 17 mph 1019.5mb 36f
10:18am 13 16 mph 1019.8mb 36f
10:06am 7 9 mph 1019.7mb 36f
10:00am 7 13 mph 1019.8mb 37f
9:54am 11 14 mph 1019.9mb 36f
9:48am 11 15 mph 1019.8mb 36f
9:42am 10 14 mph 1019.9mb 36f
9:36am 14 16 mph 1019.7mb 36f
9:30am 8 14 mph 1019.7mb 36f
9:24am 10 14 mph 1019.7mb 36f
9:18am 8 13 mph 1019.7mb 36f
9:12am 9 13 mph 1019.6mb 36f
9:06am 11 14 mph 1019.4mb 36f
9:00am 10 14 mph 1019.4mb 36f
8:54am 9 13 mph 1019.3mb 36f
8:48am 11 14 mph 1019.1mb 36f
8:42am 9 14 mph 1019mb 36f
8:30am 8 9 mph 1018.9mb 36f
8:24am 9 11 mph 1019mb 36f
8:18am 9 13 mph 1018.9mb 36f
8:12am 9 13 mph 1018.7mb 36f
8:06am 9 13 mph 1018.9mb 36f
8:00am 8 10 mph 1018.8mb 35f
7:54am 7 11 mph 1018.7mb 35f
7:48am 7 11 mph 1018.8mb 35f
7:42am 7 11 mph 1018.6mb 35f
7:36am 8 11 mph 1018.6mb 35f
7:30am 7 13 mph 1018.6mb 35f
7:24am 8 13 mph 1018.5mb 35f
7:18am 9 14 mph 1018.5mb 35f
7:06am 8 13 mph 1018.2mb 35f
7:00am 6 9 mph 1018mb 35f
6:54am 7 11 mph 1018.3mb 35f
6:48am 7 10 mph 1018.3mb 35f
6:42am 7 10 mph 1018.3mb 35f
6:36am 5 7 mph 1018.3mb 35f
6:30am 6 8 mph 1018.3mb 35f
6:24am 6 8 mph 1018.2mb 35f
6:18am 6 8 mph 1018.4mb 35f
6:12am 6 10 mph 1018.1mb 35f
6:06am 6 9 mph 1018.1mb 35f
6:00am 7 10 mph 1018.2mb 36f
5:54am 6 8 mph 1018.3mb 36f
5:48am 6 7 mph 1018.2mb 36f
5:42am 3 7 mph 1018.1mb 36f
5:36am 7 9 mph 1017.9mb 36f
5:30am 8 9 mph 1018mb 36f
5:24am 8 11 mph 1017.9mb 36f
5:18am 9 13 mph 1017.8mb 36f
5:12am 6 10 mph 1017.7mb 36f
5:06am 7 11 mph 1017.6mb 36f
5:00am 7 10 mph 1017.4mb 36f
4:54am 6 10 mph 1017.4mb 36f
4:48am 6 10 mph 1017.3mb 36f
4:42am 7 13 mph 1017.3mb 36f
4:36am 7 13 mph 1017.1mb 36f
4:30am 9 14 mph 1017.1mb 36f
4:24am 7 10 mph 1017mb 36f
4:18am 7 13 mph 1016.9mb 36f
4:12am 8 13 mph 1016.8mb 36f
4:06am 8 10 mph 1016.8mb 36f
4:00am 8 10 mph 1016.7mb 36f
3:54am 7 10 mph 1016.6mb 36f
3:48am 7 10 mph 1016.6mb 36f
3:42am 7 10 mph 1016.6mb 36f
3:36am 8 10 mph 1016.6mb 36f
3:30am 6 11 mph 1016.4mb 36f
3:24am 6 9 mph 1016.6mb 36f
3:18am 7 10 mph 1016.7mb 36f
3:12am 7 9 mph 1016.6mb 36f
3:06am 8 11 mph 1016.6mb 36f
3:00am 8 13 mph 1016.7mb 37f
2:54am 7 11 mph 1016.7mb 37f
2:48am 9 11 mph 1016.6mb 37f
2:42am 9 13 mph 1016.7mb 37f
2:36am 7 13 mph 1016.6mb 37f
2:30am 9 11 mph 1016.9mb 37f
2:24am 8 14 mph 1016.7mb 37f
2:18am 10 14 mph 1016.7mb 37f
2:12am 7 11 mph 1016.6mb 37f
2:06am 7 11 mph 1016.6mb 37f
2:00am 9 10 mph 1016.7mb 37f
1:54am 8 14 mph 1016.5mb 37f
1:48am 8 11 mph 1016.4mb 37f
1:42am 7 8 mph 1016.4mb 37f
1:36am 8 10 mph 1016.2mb 37f
1:30am 6 7 mph 1016.4mb 37f
1:24am 7 9 mph 1016mb 37f
1:18am 8 11 mph 1016.1mb 37f
1:12am 7 11 mph 1015.9mb 37f
1:06am 10 13 mph 1016mb 37f
1:00am 8 13 mph 1015.9mb 37f
12:54am 8 13 mph 1015.8mb 37f
12:48am 11 15 mph 1015.7mb 37f
12:42am 8 13 mph 1015.7mb 37f
12:36am 8 13 mph 1015.7mb 37f
12:30am 10 14 mph 1015.6mb 37f
12:24am 13 15 mph 1015.7mb 37f
12:18am 9 13 mph 1015.8mb 37f
12:12am 9 14 mph 1016.2mb 37f
12:06am 8 13 mph 1016mb 37f
12:00am 8 13 mph 1015.8mb 37f
Sat 12/27 11:54pm 8 14 mph 1015.9mb 37f
11:48pm 7 10 mph 1015.8mb 37f
11:42pm 8 14 mph 1015.9mb 37f
11:36pm 10 14 mph 1016mb 37f
11:30pm 8 13 mph 1016mb 37f
11:24pm 10 15 mph 1016.1mb 37f
11:18pm 10 16 mph 1016.3mb 37f
11:12pm 8 13 mph 1016.3mb 37f
11:06pm 9 15 mph 1016.2mb 37f
11:00pm 8 13 mph 1016.4mb 37f
10:54pm 8 14 mph 1016.3mb 37f
10:48pm  -  mph - 37f
10:42pm  -  mph - 37f
10:36pm  -  mph - 37f
10:30pm 10 21 mph 1016.1mb 37f
10:24pm 9 15 mph 1016.3mb 38f
10:18pm 11 18 mph 1016.3mb 38f
10:12pm 14 20 mph 1016.2mb 38f
10:06pm 15 22 mph 1016.1mb 38f
10:00pm 13 17 mph 1016.1mb 39f
9:54pm 10 18 mph 1016mb 39f
9:48pm 9 17 mph 1016mb 39f
9:42pm 14 18 mph 1015.8mb 39f
9:36pm 14 21 mph 1015.8mb 40f
9:30pm 13 16 mph 1015.6mb 40f
9:24pm 14 18 mph 1015.5mb 40f
9:12pm 11 17 mph 1015.8mb 42f
9:06pm 14 20 mph 1016mb 42f
9:00pm 14 18 mph 1015.9mb 42f
8:54pm 13 21 mph 1016mb 42f
8:48pm 13 17 mph 1016.2mb 42f
8:42pm 9 18 mph 1016mb 43f
8:36pm 14 22 mph 1015.8mb 43f
8:30pm 15 22 mph 1015.9mb 44f
8:24pm 13 21 mph 1015.5mb 44f
8:18pm 10 21 mph 1015.1mb 44f
8:12pm 14 21 mph 1015.1mb 44f
8:06pm 11 18 mph 1014.9mb 45f
8:00pm 10 18 mph 1014.9mb 45f
7:54pm 17 23 mph 1015.5mb 46f
7:48pm 17 25 mph 1015.5mb 46f
7:42pm 17 25 mph 1015.2mb 46f
7:36pm 18 25 mph 1015.1mb 47f
7:30pm 13 18 mph 1015mb 48f
7:24pm 11 14 mph 1015mb 48f
7:18pm 10 17 mph 1015.1mb 48f
7:12pm 10 18 mph 1015.1mb 48f
7:00pm 9 15 mph 1014.8mb 47f
6:54pm 10 16 mph 1015.2mb 47f
6:48pm 9 15 mph 1015.1mb 47f
6:42pm 8 15 mph 1014.8mb 47f
6:36pm 9 14 mph 1014.7mb 47f
6:30pm 7 15 mph 1014.7mb 47f
6:24pm 9 13 mph 1014.8mb 47f
6:18pm 8 15 mph 1014.8mb 47f
6:12pm 10 17 mph 1015mb 47f
6:06pm 8 16 mph 1015mb 47f
6:00pm 10 16 mph 1015.1mb 47f
5:54pm 7 15 mph 1015mb 47f
5:48pm 11 17 mph 1015.1mb 47f
5:42pm 10 16 mph 1015.1mb 47f
5:36pm 10 17 mph 1015.3mb 48f
5:30pm 10 17 mph 1015.6mb 48f
5:24pm 9 17 mph 1015.8mb 48f
5:18pm 7 16 mph 1015.7mb 48f
5:12pm 8 16 mph 1015.8mb 48f
5:06pm 10 16 mph 1016mb 48f
5:00pm 11 17 mph 1015.9mb 48f
4:54pm 11 17 mph 1015.9mb 48f
4:48pm 13 18 mph 1015.9mb 48f
4:42pm 13 17 mph 1015.5mb 48f
4:36pm 8 18 mph 1015.7mb 48f
4:30pm 9 16 mph 1015.7mb 48f
4:24pm 8 18 mph 1015.7mb 48f
4:18pm 10 20 mph 1015.7mb 48f
4:12pm 14 21 mph 1015.5mb 48f
4:06pm 9 15 mph 1015.6mb 48f
4:00pm 11 20 mph 1015.5mb 48f
3:54pm 11 21 mph 1015.4mb 48f
3:48pm 10 18 mph 1015.4mb 48f
3:42pm 11 20 mph 1015.3mb 48f
3:36pm 10 18 mph 1015.2mb 48f
3:30pm 10 20 mph 1015mb 47f
3:24pm 10 16 mph 1014.8mb 47f
3:18pm 9 17 mph 1014.7mb 47f
3:12pm 10 20 mph 1014.6mb 47f
3:06pm 14 20 mph 1014.9mb 48f
3:00pm 9 18 mph 1015.1mb 47f
2:54pm 11 18 mph 1015.3mb 48f
2:48pm 11 18 mph 1015.1mb 48f
2:42pm 10 15 mph 1015.1mb 48f
2:36pm 7 17 mph 1015.3mb 48f
2:30pm 11 16 mph 1015.4mb 48f
2:24pm 10 16 mph 1015.3mb 48f
2:18pm 10 20 mph 1015.1mb 47f
2:12pm 11 20 mph 1015mb 47f
2:06pm 13 20 mph 1015mb 48f
2:00pm 10 16 mph 1015.2mb 48f
1:54pm 15 22 mph 1015mb 48f
1:48pm 14 23 mph 1015mb 48f
1:42pm 16 24 mph 1015mb 48f
1:36pm 17 26 mph 1015mb 48f
1:30pm 17 26 mph 1015.1mb 48f
1:24pm 15 24 mph 1015mb 48f
12:54pm 17 23 mph 1014.9mb 48f
12:48pm 13 21 mph 1015mb 48f
12:42pm 11 22 mph 1015.3mb 48f
12:36pm 14 23 mph 1015.6mb 48f
12:30pm 18 29 mph 1015.7mb 48f
12:24pm 11 18 mph 1015.6mb 47f
12:18pm 11 23 mph 1015.6mb 48f
12:12pm 13 23 mph 1015.9mb 48f
12:06pm 14 22 mph 1015.8mb 48f
12:00pm 13 22 mph 1015.8mb 48f
11:54am 14 18 mph 1015.9mb 48f
11:48am 11 21 mph 1015.8mb 48f
11:42am 11 22 mph 1015.8mb 48f
11:36am 14 22 mph 1015.9mb 48f
11:30am 15 23 mph 1016mb 48f
11:24am 14 22 mph 1016mb 47f
11:18am 14 23 mph 1016.1mb 47f
11:12am 17 22 mph 1016.2mb 46f
11:06am 15 22 mph 1016.3mb 46f
11:00am 11 20 mph 1016.5mb 46f
10:54am 15 22 mph 1016.7mb 46f
10:48am 13 18 mph 1016.9mb 45f
10:42am 11 18 mph 1017.3mb 45f
10:36am 13 21 mph 1017.5mb 45f
10:30am 14 21 mph 1017.8mb 45f
10:24am 16 22 mph 1018mb 45f
10:18am 16 22 mph 1018mb 45f
10:12am 16 20 mph 1018.2mb 45f
10:06am 14 21 mph 1018.4mb 45f
10:00am 13 18 mph 1018.6mb 44f
9:54am 13 20 mph 1018.5mb 44f
9:48am 15 25 mph 1018.6mb 44f
9:42am 17 24 mph 1018.6mb 45f
9:36am 11 20 mph 1018.7mb 46f
9:30am 13 20 mph 1018.7mb 46f
9:24am 15 23 mph 1018.8mb 47f
9:18am 14 18 mph 1018.8mb 47f
9:12am 15 23 mph 1018.9mb 47f
9:06am 11 17 mph 1018.9mb 47f
9:00am 14 18 mph 1019mb 46f
8:54am 16 22 mph 1019.1mb 46f
8:48am 15 18 mph 1019mb 46f
8:42am 14 22 mph 1019mb 46f
8:36am 16 21 mph 1019.1mb 46f
8:30am 16 22 mph 1018.9mb 46f
8:24am 13 20 mph 1019mb 46f
8:18am 13 18 mph 1019mb 46f
8:12am 14 18 mph 1018.8mb 46f
8:06am 14 20 mph 1018.8mb 46f
8:00am 11 18 mph 1018.7mb 46f
7:54am 15 20 mph 1018.7mb 45f
7:48am 11 16 mph 1018.8mb 46f
7:42am 9 17 mph 1018.7mb 45f
7:36am 13 15 mph 1018.8mb 46f
7:30am 11 17 mph 1018.9mb 46f
7:24am 10 13 mph 1019.1mb 45f
7:18am 10 14 mph 1019.3mb 46f
7:12am 10 14 mph 1019.3mb 46f
7:06am 10 13 mph 1019.3mb 46f
7:00am 8 11 mph 1019.3mb 45f
6:54am 6 8 mph 1019.3mb 45f
6:48am 8 14 mph 1019.3mb 45f
6:42am 11 14 mph 1019.4mb 46f
6:36am 13 15 mph 1019.4mb 46f
6:30am 11 17 mph 1019.3mb 46f
6:24am 7 10 mph 1019.3mb 46f
6:18am 7 10 mph 1019.2mb 46f
6:12am 9 13 mph 1019.1mb 46f
6:06am 9 13 mph 1019mb 46f
6:00am 9 13 mph 1019mb 46f
5:54am 10 14 mph 1019mb 46f
5:48am 9 14 mph 1019mb 45f
5:42am 9 11 mph 1019mb 45f
5:36am 9 13 mph 1019.1mb 45f
5:30am 8 13 mph 1019.1mb 46f
5:24am 10 13 mph 1019mb 45f
5:18am 8 13 mph 1019mb 45f
5:12am 9 13 mph 1018.9mb 45f
5:06am 8 14 mph 1019mb 45f
5:00am 8 13 mph 1019.1mb 45f
4:54am 9 14 mph 1019.1mb 45f
4:48am 9 13 mph 1019.2mb 44f
4:42am 8 13 mph 1019.2mb 45f
4:36am 10 14 mph 1019.1mb 44f
4:30am 9 13 mph 1018.8mb 44f
4:24am 9 13 mph 1019.1mb 44f
4:18am 9 13 mph 1019.2mb 44f
4:12am 9 11 mph 1019.2mb 44f
4:06am 7 9 mph 1019mb 44f
4:00am 7 9 mph 1019.2mb 44f
3:54am 5 8 mph 1019.1mb 44f
3:48am 6 9 mph 1019.1mb 44f
3:42am 6 8 mph 1019.3mb 44f
3:36am 6 10 mph 1019.4mb 44f
3:30am 7 9 mph 1019.5mb 44f
3:24am 5 9 mph 1019.5mb 44f
3:18am 5 8 mph 1019.6mb 44f
3:12am 5 8 mph 1019.5mb 44f
3:06am 5 8 mph 1019.7mb 44f
3:00am 5 8 mph 1019.7mb 44f
2:54am 6 9 mph 1019.8mb 44f
2:48am 6 10 mph 1019.9mb 44f
2:42am 6 10 mph 1019.9mb 44f
2:36am 6 11 mph 1019.9mb 44f
2:30am 8 14 mph 1020mb 44f
2:24am 8 11 mph 1020mb 44f
2:18am 8 13 mph 1020mb 44f
2:12am 8 11 mph 1020mb 44f
2:06am 7 11 mph 1019.9mb 44f
2:00am 6 11 mph 1019.9mb 44f
1:54am 6 11 mph 1020mb 44f
1:48am 7 13 mph 1019.9mb 44f
1:42am 7 10 mph 1019.9mb 44f
1:36am 6 10 mph 1019.9mb 44f
1:30am 7 10 mph 1019.9mb 44f
1:24am 6 9 mph 1019.9mb 44f
1:18am 6 10 mph 1019.8mb 44f
1:12am 6 10 mph 1019.7mb 44f
1:06am 6 10 mph 1019.7mb 44f
1:00am 7 11 mph 1019.6mb 44f
12:54am 7 11 mph 1019.6mb 44f
12:48am 7 11 mph 1019.5mb 44f
12:42am 6 11 mph 1019.5mb 44f
12:36am 7 10 mph 1019.5mb 44f
12:30am 7 9 mph 1019.5mb 43f
12:24am 7 10 mph 1019.6mb 44f
12:18am 7 10 mph 1019.6mb 43f
12:12am 7 10 mph 1019.6mb 43f
12:06am 6 11 mph 1019.6mb 43f
12:00am 6 8 mph 1019.6mb 42f
Fri 12/26 11:54pm 6 10 mph 1019.7mb 42f
11:48pm 7 10 mph 1019.7mb 42f
11:42pm 7 13 mph 1019.8mb 42f
11:36pm 8 11 mph 1019.9mb 42f
11:30pm 7 13 mph 1020mb 42f
11:24pm 8 14 mph 1020.1mb 41f
11:18pm 9 14 mph 1020.1mb 42f
11:12pm 7 13 mph 1020.2mb 41f
11:06pm 9 15 mph 1020.2mb 41f
11:00pm 8 11 mph 1020.2mb 41f
10:54pm 8 14 mph 1020.2mb 41f
10:48pm 9 14 mph 1020.1mb 41f
10:42pm 9 14 mph 1020.1mb 41f
10:36pm 9 14 mph 1020mb 41f
10:30pm 11 14 mph 1020mb 41f
10:24pm 10 15 mph 1019.9mb 41f
10:18pm 9 13 mph - -
10:12pm 8 14 mph 1019.9mb 41f
10:06pm 8 11 mph 1019.9mb 41f
10:00pm 6 9 mph 1019.8mb 40f
9:54pm 7 9 mph 1019.9mb 41f
9:48pm 7 10 mph 1019.8mb 41f
9:42pm 8 10 mph 1019.8mb 41f
9:36pm 7 9 mph 1019.8mb 41f
9:30pm 7 10 mph 1019.8mb 41f
9:24pm 7 10 mph 1019.8mb 41f
9:18pm 7 10 mph 1019.7mb 41f
9:12pm 6 10 mph 1019.9mb 41f
9:06pm 7 10 mph 1019.9mb 41f
9:00pm 8 11 mph 1019.9mb 41f
8:54pm 9 14 mph 1019.9mb 41f
8:48pm 9 13 mph 1019.9mb 41f
8:42pm 8 11 mph 1020mb 41f
8:36pm 8 10 mph 1020mb 41f
8:30pm 8 9 mph 1019.9mb 41f
8:24pm 7 10 mph 1019.9mb 42f
8:18pm 8 11 mph 1019.8mb 42f
8:12pm 8 10 mph 1019.8mb 42f
8:06pm 8 13 mph 1019.8mb 42f
8:00pm 8 11 mph 1019.8mb 42f
7:54pm 8 11 mph 1019.8mb 42f
7:48pm 8 11 mph - 42f
7:42pm 9 11 mph - 42f
7:36pm 9 13 mph - 43f
7:30pm 9 13 mph 1020mb 43f
7:24pm 8 11 mph 1020mb 43f
7:18pm 8 13 mph 1020mb 43f
7:12pm 9 14 mph 1020mb 43f
7:06pm 8 16 mph 1020.1mb 43f
7:00pm 9 13 mph 1020mb 43f
6:54pm 7 11 mph 1020mb 43f
6:48pm 8 13 mph 1019.9mb 43f
6:42pm 8 11 mph 1019.9mb 43f
6:36pm 8 11 mph 1019.9mb 43f
6:30pm 9 13 mph 1019.9mb 43f
6:24pm 8 11 mph 1019.8mb 43f
6:18pm 9 13 mph 1019.8mb 43f
6:12pm 8 11 mph 1019.9mb 43f
6:06pm 8 10 mph 1020mb 43f
6:00pm 8 10 mph 1020mb 43f
5:54pm 8 11 mph 1020mb 43f
5:48pm 8 11 mph 1019.9mb 43f
5:42pm 7 9 mph 1019.9mb 43f
5:36pm 7 9 mph 1019.9mb 43f
5:30pm 6 8 mph 1019.7mb 43f
5:24pm 6 8 mph 1019.7mb 44f
5:18pm 5 8 mph 1019.6mb 44f
5:12pm 5 7 mph 1019.5mb 44f
5:06pm 5 8 mph 1019.6mb 44f
5:00pm 6 8 mph 1019.5mb 44f
4:54pm 6 10 mph 1019.5mb 44f
4:48pm 9 10 mph 1019.4mb 44f
4:42pm 8 11 mph 1019.4mb 44f
4:36pm 9 11 mph 1019.4mb 44f
4:30pm 8 10 mph 1019.3mb 44f
4:24pm 8 10 mph 1019.3mb 44f
4:18pm 7 11 mph 1019.2mb 45f
4:12pm 7 10 mph 1019.2mb 45f
4:06pm 6 10 mph 1019.2mb 45f
4:00pm 6 11 mph 1019.2mb 46f
3:54pm 7 11 mph 1019.1mb 46f
3:48pm 7 15 mph 1019.1mb 46f
3:42pm 7 13 mph 1019mb 46f
3:36pm 8 14 mph 1019mb 46f
3:30pm 9 16 mph 1019mb 46f
3:24pm 8 14 mph 1019.1mb 46f
3:18pm 9 13 mph 1019.1mb 46f
3:12pm 8 13 mph 1019.2mb 46f
3:00pm 9 18 mph 1019.1mb 46f
2:54pm 10 16 mph 1019mb 47f
2:48pm  -  mph 1019mb 47f
2:42pm  -  mph 1019mb 46f
2:36pm  -  mph 1018.9mb 46f
2:30pm 11 17 mph 1018.9mb 46f
2:24pm 10 18 mph 1018.9mb 47f
2:18pm 11 17 mph 1018.8mb 47f
2:06pm 13 18 mph 1018.8mb 47f
2:00pm 11 16 mph 1018.8mb 47f
1:54pm 9 18 mph 1018.7mb 47f
1:48pm 11 17 mph 1018.7mb 46f
1:42pm 13 20 mph 1018.6mb 47f
1:36pm 10 16 mph 1018.6mb 47f
1:30pm 9 17 mph 1018.6mb 47f
1:24pm 13 17 mph 1018.6mb 47f
1:18pm 11 16 mph 1018.6mb 47f
1:12pm 10 16 mph 1018.6mb 47f
1:06pm 10 15 mph 1018.6mb 47f
1:00pm 10 15 mph 1018.6mb 47f
12:54pm 9 14 mph 1018.6mb 47f
12:48pm 10 17 mph 1018.7mb 46f
12:42pm 10 17 mph 1018.7mb 46f
12:36pm 9 15 mph 1018.7mb 46f
12:30pm 10 17 mph 1018.8mb 46f
12:24pm 9 16 mph 1018.7mb 46f
12:18pm 9 15 mph 1018.9mb 45f
12:12pm 10 15 mph 1019mb 45f
12:06pm 9 17 mph 1019.1mb 45f
12:00pm 13 17 mph 1019.1mb 45f
11:54am 9 17 mph 1019.2mb 45f
11:48am 9 16 mph 1019.4mb 45f
11:42am 11 17 mph 1019.6mb 45f
11:36am 8 17 mph 1019.6mb 44f
11:30am 9 16 mph 1019.7mb 44f
11:24am 13 18 mph 1019.8mb 44f
11:18am 9 18 mph 1019.9mb 44f
11:12am 10 17 mph 1020mb 43f
11:06am 9 16 mph 1020mb 43f
11:00am 8 18 mph 1020.1mb 43f
10:54am 8 16 mph 1020.3mb 43f
10:48am 10 16 mph 1020.4mb 43f
10:42am 11 20 mph 1020.5mb 42f
10:36am 11 17 mph 1020.5mb 42f
10:24am 10 17 mph 1020.7mb 42f
10:18am 10 17 mph 1020.8mb 42f
10:12am 10 15 mph 1020.9mb 42f
10:06am 13 17 mph 1020.9mb 41f
10:00am 9 18 mph 1021mb 41f
9:54am 13 20 mph 1021mb 41f
9:48am 9 17 mph 1021mb 41f
9:42am 9 17 mph 1021mb 41f
9:36am 11 20 mph 1020.9mb 40f
9:30am 13 20 mph 1020.9mb 40f
9:24am 9 14 mph 1020.9mb 40f
9:18am 14 18 mph 1020.9mb 39f
9:12am 14 20 mph 1020.9mb 39f
9:06am 14 21 mph 1020.9mb 39f
9:00am 11 18 mph 1020.9mb 39f
8:54am 11 17 mph 1020.8mb 39f
8:48am 11 20 mph 1020.9mb 39f
8:42am 11 16 mph 1020.9mb 38f
8:36am 11 15 mph 1020.8mb 38f
8:30am 13 16 mph 1020.8mb 38f
8:24am 13 16 mph 1020.8mb 38f
8:18am 8 11 mph 1020.9mb 37f
8:06am 9 13 mph 1020.8mb 37f
8:00am 9 13 mph 1020.9mb 36f
7:54am 9 14 mph 1020.8mb 36f
7:48am 9 15 mph 1020.8mb 36f
7:42am 10 15 mph 1020.8mb 35f
7:36am 10 15 mph 1020.8mb 35f
7:30am 10 14 mph 1020.7mb 35f
7:24am 9 14 mph 1020.7mb 35f
7:18am 9 14 mph 1020.6mb 34f
7:12am 10 14 mph 1020.7mb 34f
7:06am 9 13 mph 1020.8mb 34f
6:54am 9 14 mph 1020.8mb 34f
6:48am 10 13 mph 1020.9mb 34f
6:42am 9 14 mph 1021mb 34f
6:36am 9 15 mph 1021.1mb 34f
6:30am 9 14 mph 1021.1mb 34f
6:24am 9 11 mph 1021.1mb 34f
6:18am 9 13 mph 1021.1mb 34f
6:12am 8 15 mph 1021mb 34f
6:06am 10 14 mph 1021mb 34f
6:00am 9 16 mph 1021mb 34f
5:54am 9 13 mph 1021mb 33f
5:48am 10 14 mph 1021mb 33f
5:42am 9 13 mph 1020.9mb 33f
5:36am 10 14 mph 1020.8mb 33f
5:30am 9 13 mph 1020.7mb 33f
5:24am 10 14 mph 1020.7mb 33f
5:18am 10 14 mph 1020.7mb 33f
5:12am 9 13 mph 1020.7mb 33f
5:06am 10 13 mph 1020.7mb 33f
5:00am 10 15 mph 1020.7mb 33f
4:54am 9 11 mph 1020.7mb 33f
4:48am 9 11 mph 1020.6mb 33f
4:42am 8 13 mph 1020.5mb 33f
4:36am 8 11 mph 1020.4mb 33f
4:30am 9 13 mph 1020.5mb 33f
4:24am 8 13 mph 1020.6mb 33f
4:18am 8 10 mph 1020.7mb 33f
4:12am 7 10 mph 1020.7mb 32f
4:06am 8 9 mph 1020.8mb 32f
4:00am 7 10 mph 1020.9mb 32f
3:54am 8 11 mph 1020.8mb 32f
3:48am 7 11 mph 1020.9mb 33f
3:42am 8 11 mph 1020.8mb 33f
3:36am 6 9 mph 1020.8mb 33f
3:30am 6 9 mph 1020.9mb 33f
3:24am 6 10 mph 1021.1mb 33f
3:18am 6 9 mph 1021.2mb 33f
3:12am 8 11 mph 1021.1mb 34f
3:06am 7 11 mph 1021.2mb 33f
3:00am 6 9 mph 1021.2mb 33f
2:54am 7 9 mph 1021.3mb 33f
2:48am 7 11 mph 1021.3mb 33f
2:42am 9 11 mph 1021.2mb 33f
2:36am 10 13 mph 1021.3mb 33f
2:30am 8 10 mph 1021.3mb 33f
2:24am 7 9 mph 1021.4mb 33f
2:18am 6 10 mph 1021.3mb 33f
2:12am 7 8 mph 1021.3mb 33f
2:06am 6 9 mph 1021.3mb 33f
2:00am 8 9 mph 1021.1mb 34f
1:54am 7 11 mph 1021mb 33f
1:48am 7 10 mph 1021mb 33f
1:42am 8 10 mph 1021mb 34f
1:36am 8 10 mph 1021mb 33f
1:30am 7 9 mph 1021mb 34f
1:24am 8 10 mph 1021.1mb 34f
1:18am 9 11 mph 1021.1mb 34f
1:12am 10 13 mph 1021mb 34f
1:06am 9 14 mph 1020.9mb 34f
1:00am 10 15 mph 1020.9mb 35f
12:54am 10 14 mph 1020.8mb 35f
12:48am 11 15 mph 1020.6mb 35f
12:42am 10 15 mph 1020.6mb 35f
12:36am 9 11 mph 1020.6mb 35f
12:30am 8 13 mph 1020.4mb 35f
12:24am 9 13 mph 1020.2mb 35f
12:18am 9 14 mph 1020mb 35f
12:12am 10 14 mph 1019.8mb 35f
12:06am 10 15 mph 1019.8mb 35f
12:00am 9 15 mph 1019.9mb 35f
Thu 12/25 11:54pm 9 13 mph 1020mb 35f
11:48pm 8 13 mph 1019.8mb 35f
11:42pm 9 11 mph 1019.9mb 35f
11:36pm 8 9 mph 1020.1mb 35f
11:30pm 7 9 mph 1019.9mb 35f
11:24pm 7 11 mph 1019.9mb 35f
11:18pm 6 9 mph 1020.1mb 35f
11:12pm 6 9 mph 1020.1mb 35f
11:06pm 7 10 mph 1020.1mb 35f
11:00pm 8 13 mph 1020.2mb 35f
10:54pm 8 10 mph 1020.1mb 35f
10:48pm 9 10 mph 1020.2mb 35f
10:42pm 8 13 mph 1020.3mb 35f
10:36pm 8 13 mph 1020.1mb 35f
10:30pm 10 15 mph 1020.3mb 35f
10:24pm 7 11 mph 1020.5mb 35f
10:18pm 9 13 mph 1020.4mb 35f
10:12pm 9 13 mph 1020.4mb 35f
10:06pm 7 9 mph 1020.2mb 35f
10:00pm 8 10 mph 1020.1mb 35f
9:54pm 7 10 mph 1020mb 35f
9:48pm 8 13 mph 1020.1mb 36f
9:42pm 9 14 mph 1020.2mb 36f
9:36pm 10 15 mph 1020.2mb 36f
9:30pm 9 14 mph 1020.3mb 36f
9:24pm 10 14 mph 1020.3mb 36f
9:18pm 10 14 mph 1020.2mb 35f
9:12pm 11 15 mph 1020.2mb 35f
9:06pm 10 14 mph 1020.2mb 36f
9:00pm 8 14 mph 1020.3mb 36f
8:54pm 10 15 mph 1020.4mb 36f
8:48pm 10 14 mph 1020.4mb 36f
8:42pm 9 14 mph 1020.3mb 36f
8:36pm 8 14 mph 1020.3mb 36f
8:30pm 8 13 mph 1020.5mb 36f
8:24pm 9 13 mph 1020.3mb 36f
8:18pm 9 13 mph 1020.1mb 36f
8:12pm 10 13 mph 1020.2mb 37f
8:06pm 9 11 mph 1020.3mb 37f
8:00pm 9 11 mph 1020.4mb 37f
7:54pm 8 13 mph 1020.4mb 37f
7:48pm 7 10 mph 1020.4mb 37f
7:42pm 7 10 mph 1020.4mb 37f
7:36pm 8 13 mph 1020.5mb 38f
7:30pm 7 13 mph 1020.5mb 38f
7:24pm 7 14 mph 1020.7mb 38f
7:18pm 9 15 mph 1020.9mb 38f
7:12pm 11 17 mph 1020.8mb 38f
7:06pm 9 15 mph 1020.7mb 38f
7:00pm 9 15 mph 1020.6mb 38f
6:54pm 9 16 mph 1020.6mb 38f
6:48pm 8 15 mph 1020.5mb 38f
6:42pm 11 18 mph 1020.4mb 38f
6:36pm 11 20 mph 1020.3mb 38f
6:30pm 8 16 mph 1020.1mb 38f
6:24pm 9 15 mph 1020mb 38f
6:18pm 10 16 mph 1020mb 38f
6:12pm 11 18 mph 1019.9mb 38f
6:06pm 10 17 mph 1019.8mb 38f
6:00pm 9 15 mph 1019.7mb 38f
5:54pm 9 16 mph 1019.5mb 38f
5:48pm 9 15 mph 1019.5mb 38f
5:42pm 9 15 mph 1019.4mb 38f
5:36pm 9 15 mph 1019.3mb 38f
5:30pm 9 14 mph 1019.3mb 38f
5:24pm 8 16 mph 1019.2mb 38f
5:18pm 10 16 mph 1019.2mb 38f
5:12pm 13 17 mph 1019.2mb 38f
5:06pm 11 20 mph 1019.2mb 38f
5:00pm 11 14 mph 1019.2mb 38f
4:54pm 13 21 mph 1019.2mb 38f
4:48pm 11 17 mph 1019.1mb 38f
4:42pm 11 16 mph 1019mb 38f
4:36pm 11 17 mph 1018.9mb 38f
4:30pm 8 11 mph 1018.8mb 38f
4:24pm 9 15 mph 1018.5mb 38f
4:18pm 11 18 mph 1018.4mb 38f
4:12pm 13 17 mph 1018.4mb 38f
4:06pm 9 14 mph 1018.5mb 38f
4:00pm 13 20 mph 1018.5mb 38f
3:54pm 13 20 mph 1018.4mb 38f
3:48pm 11 16 mph 1018.3mb 38f
3:42pm 13 17 mph 1018.2mb 38f
3:36pm 10 16 mph 1018.1mb 38f
3:30pm 11 14 mph 1018mb 38f
3:24pm 10 17 mph 1017.9mb 38f
3:18pm 14 20 mph 1017.9mb 38f
3:12pm 11 17 mph 1017.8mb 38f
3:06pm 8 11 mph 1017.7mb 38f
3:00pm 8 14 mph 1017.5mb 38f
2:54pm 10 14 mph 1017.4mb 38f
2:48pm 11 20 mph 1017.2mb 39f
2:42pm 13 22 mph 1017.2mb 38f
2:36pm 11 17 mph 1016.9mb 38f
2:30pm 14 18 mph 1017mb 38f
2:24pm 11 22 mph 1017mb 38f
2:18pm 9 22 mph 1017mb 38f
2:12pm 11 21 mph 1017mb 38f
2:06pm 13 24 mph 1016.8mb 38f
2:00pm 10 16 mph 1016.7mb 38f
1:54pm 16 21 mph 1016.7mb 38f
1:48pm 16 22 mph 1016.6mb 38f
1:42pm 14 20 mph 1016.6mb 38f
1:36pm 11 22 mph 1016.5mb 38f
1:30pm 10 15 mph 1016.5mb 38f
1:24pm 15 20 mph 1016.4mb 38f
1:18pm 11 25 mph 1016.3mb 38f
1:12pm 14 22 mph 1016.2mb 38f
1:06pm 14 22 mph 1016.2mb 38f
1:00pm 18 25 mph 1016.2mb 38f
12:54pm 16 25 mph 1016.1mb 38f
12:48pm 16 24 mph 1016.3mb 38f
12:42pm 15 21 mph 1016.3mb 38f
12:36pm 10 23 mph 1016.2mb 38f
12:30pm 15 25 mph 1016mb 38f
12:24pm 18 28 mph 1015.8mb 38f
12:18pm 21 26 mph 1015.6mb 38f
12:12pm 18 25 mph 1015.5mb 38f
12:06pm 20 26 mph 1015.5mb 38f
12:00pm 16 24 mph 1015.4mb 39f
11:54am 14 23 mph 1015.3mb 39f
11:48am 9 22 mph 1015.1mb 39f
11:42am 20 23 mph 1014.9mb 39f
11:36am 13 21 mph 1014.8mb 40f
11:30am 15 21 mph 1014.8mb 39f
11:24am 14 20 mph 1014.8mb 39f
11:18am 15 23 mph 1014.7mb 39f
11:06am 14 20 mph 1014.7mb 40f
11:00am 14 18 mph 1014.8mb 40f
10:54am 14 28 mph 1014.9mb 40f
10:48am 16 23 mph 1014.8mb 40f
10:42am 11 16 mph 1014.8mb 40f
10:36am 13 16 mph 1014.9mb 40f
10:30am 9 16 mph 1014.9mb 40f
10:24am 10 21 mph 1014.8mb 40f
10:18am 13 22 mph 1014.7mb 40f
10:12am 8 18 mph 1014.6mb 40f
10:06am 10 18 mph 1014.5mb 39f
10:00am 16 21 mph 1014.4mb 39f
9:54am 11 16 mph 1014.3mb 40f
9:48am 11 25 mph 1014.1mb 39f